OK2WF-5 Weather Reports


Display with metric or nautical units.
time (UTC)temp
F
wind
direction
speed
MPH
gust
MPH
rain 1hr
in
rain 24hr
in
rain mn
in
humidity
%
barometer
mb
20260502214257 0 45 0.0 2.0 0.00 0.00 0.00 1018.9
20260502213454 0 45 0.0 2.0 0.00 0.00 0.00 1018.8
20260502212641 0 90 0.0 1.0 0.00 0.00 0.00 1019.0
20260502211828 0 90 0.0 2.0 0.00 0.00 0.00 1019.0
20260502211020 0 45 1.0 1.0 0.00 0.00 0.00 1019.0
20260502210215 0 45 0.0 2.0 0.00 0.00 0.00 1018.9
20260502205410 0 90 1.0 1.0 0.00 0.00 0.00 1018.9
20260502204608 0 90 1.0 2.0 0.00 0.00 0.00 1018.9
20260502203806 0 45 0.0 1.0 0.00 0.00 0.00 1019.0
20260502203002 0 90 1.0 2.0 0.00 0.00 0.00 1019.0
20260502202202 0 45 0.0 1.0 0.00 0.00 0.00 1018.9
20260502201359 0 45 0.0 1.0 0.00 0.00 0.00 1018.9
20260502200557 0 45 1.0 2.0 0.00 0.00 0.00 1018.8
20260502195754 0 45 1.0 1.0 0.00 0.00 0.00 1018.8
20260502194953 0 45 0.0 1.0 0.00 0.00 0.00 1018.7
20260502194148 0 90 0.0 2.0 0.00 0.00 0.00 1018.7
20260502193345 0 68 0.0 2.0 0.00 0.00 0.00 1018.7
20260502192541 0 90 0.0 2.0 0.00 0.00 0.00 1018.7
20260502191735 0 45 1.0 2.0 0.00 0.00 0.00 1018.6
20260502190927 0 45 1.0 2.0 0.00 0.00 0.00 1018.5
20260502190125 0 315 0.0 1.0 0.00 0.00 0.00 1018.4
20260502185320 0 315 1.0 2.0 0.00 0.00 0.00 1018.2
20260502184515 0 90 0.0 0.0 0.00 0.00 0.00 1018.0
20260502183714 0 315 0.0 1.0 0.00 0.00 0.00 1017.8
20260502182911 0 45 0.0 1.0 0.00 0.00 0.00 1017.7
20260502182107 0 90 0.0 1.0 0.00 0.00 0.00 1017.5
20260502181301 0 45 0.0 1.0 0.00 0.00 0.00 1017.3
20260502180458 0 270 0.0 1.0 0.00 0.00 0.00 1017.1
20260502163552 0 90 0.0 1.0 0.00 0.00 0.00 1015.8
20260502162739 0 90 1.0 2.0 0.00 0.00 0.00 1016.0
20260502161928 0 315 0.0 1.0 0.00 0.00 0.00 1016.0
20260502161125 0 0 1.0 3.0 0.00 0.00 0.00 1016.1
20260502160320 0 90 1.0 3.0 0.00 0.00 0.00 1016.1
20260502152256 0 45 0.0 3.0 0.00 0.00 0.00 1016.4
20260502151448 0 45 2.0 2.0 0.00 0.00 0.00 1016.5
20260502150644 0 90 0.0 4.0 0.00 0.00 0.00 1016.4
20260502130524 0 0 1.0 4.0 0.00 0.00 0.00 1017.5
20260502123311 0 315 0.0 5.0 0.00 0.00 0.00 1017.9
20260502122508 0 225 1.0 5.0 0.00 0.00 0.00 1017.9
20260502121705 0 113 1.0 3.0 0.00 0.00 0.00 1018.0
20260502120859 0 338 1.0 5.0 0.00 0.00 0.00 1018.1
20260502115248 0 45 2.0 4.0 0.00 0.00 0.00 1018.3
20260502114441 0 90 2.0 5.0 0.00 0.00 0.00 1018.6
20260502113636 0 90 1.0 5.0 0.00 0.00 0.00 1018.6
20260502112832 0 90 2.0 4.0 0.00 0.00 0.00 1018.7
20260502112026 0 90 2.0 5.0 0.00 0.00 0.00 1018.9
20260502111222 0 90 2.0 5.0 0.00 0.00 0.00 1019.0
20260502110414 0 45 2.0 4.0 0.00 0.00 0.00 1019.1
20260502105607 0 45 2.0 4.0 0.00 0.00 0.00 1019.3
20260502104755 0 90 0.0 5.0 0.00 0.00 0.00 1019.5
20260502103950 0 90 2.0 6.0 0.00 0.00 0.00 1019.5
20260502103143 0 180 2.0 4.0 0.00 0.00 0.00 1019.7
20260502102330 0 315 1.0 4.0 0.00 0.00 0.00 1019.8
20260502101518 0 135 4.0 5.0 0.00 0.00 0.00 1019.8
20260502100714 0 135 1.0 4.0 0.00 0.00 0.00 1019.6
20260502091042 0 270 1.0 4.0 0.00 0.00 0.00 1020.7
20260502090234 0 180 1.0 3.0 0.00 0.00 0.00 1020.7
20260502070916 0 293 4.0 4.0 0.00 0.00 0.00 1022.0
20260502070108 0 90 1.0 3.0 0.00 0.00 0.00 1022.1
20260502065300 0 315 0.0 2.0 0.00 0.00 0.00 1022.4
20260502064453 0 270 1.0 3.0 0.00 0.00 0.00 1022.5
20260502063645 0 270 1.0 2.0 0.00 0.00 0.00 1022.8
20260502062839 0 225 0.0 0.0 0.00 0.00 0.00 1023.1
20260502062034 0 180 0.0 0.0 0.00 0.00 0.00 1023.5
20260502061226 0 90 0.0 0.0 0.00 0.00 0.00 1023.6
20260502060417 0 90 0.0 0.0 0.00 0.00 0.00 1024.0
20260502055615 0 90 0.0 0.0 0.00 0.00 0.00 1024.1
20260502054809 0 90 0.0 0.0 0.00 0.00 0.00 1024.2
20260502054000 0 90 0.0 0.0 0.00 0.00 0.00 1024.5
20260502053155 0 90 0.0 0.0 0.00 0.00 0.00 1024.6
20260502052351 0 90 0.0 0.0 0.00 0.00 0.00 1024.6
20260502051547 0 90 0.0 0.0 0.00 0.00 0.00 1024.8
20260502050743 0 90 0.0 0.0 0.00 0.00 0.00 1025.0
20260502045936 0 90 0.0 1.0 0.00 0.00 0.00 1025.1
20260502045129 0 90 0.0 0.0 0.00 0.00 0.00 1025.2
20260502044324 0 90 0.0 0.0 0.00 0.00 0.00 1025.3
20260502043521 0 90 0.0 1.0 0.00 0.00 0.00 1025.4
20260502042718 0 45 1.0 1.0 0.00 0.00 0.00 1025.5
20260502041914 0 90 0.0 0.0 0.00 0.00 0.00 1025.5
20260502041110 0 90 0.0 0.0 0.00 0.00 0.00 1025.5
20260502040309 0 90 0.0 0.0 0.00 0.00 0.00 1025.3
20260502035459 0 90 0.0 0.0 0.00 0.00 0.00 1025.5
20260502034650 0 90 0.0 1.0 0.00 0.00 0.00 1025.4
20260502033846 0 90 0.0 1.0 0.00 0.00 0.00 1025.5
20260502033042 0 90 1.0 1.0 0.00 0.00 0.00 1025.5
20260502032238 0 90 0.0 1.0 0.00 0.00 0.00 1025.4
20260502031434 0 90 0.0 1.0 0.00 0.00 0.00 1025.4
20260502030628 0 90 1.0 1.0 0.00 0.00 0.00 1025.5
20260502025825 0 90 1.0 1.0 0.00 0.00 0.00 1025.5
20260502025023 0 45 0.0 0.0 0.00 0.00 0.00 1025.6
20260502024218 0 90 0.0 0.0 0.00 0.00 0.00 1025.5
20260502023412 0 90 0.0 2.0 0.00 0.00 0.00 1025.5
20260502022607 0 90 2.0 2.0 0.00 0.00 0.00 1025.5
20260502021806 0 90 0.0 1.0 0.00 0.00 0.00 1025.5
20260502020959 0 45 0.0 1.0 0.00 0.00 0.00 1025.4
20260502020156 0 90 1.0 1.0 0.00 0.00 0.00 1025.2
20260502015354 0 90 1.0 2.0 0.00 0.00 0.00 1025.3
20260502014548 0 90 1.0 1.0 0.00 0.00 0.00 1025.3
20260502013743 0 45 0.0 1.0 0.00 0.00 0.00 1025.2
20260502012939 0 90 1.0 1.0 0.00 0.00 0.00 1025.3
20260502012134 0 90 0.0 1.0 0.00 0.00 0.00 1025.2
20260502011330 0 90 0.0 1.0 0.00 0.00 0.00 1025.3
20260502010525 0 90 0.0 1.0 0.00 0.00 0.00 1025.1
20260502005717 0 90 0.0 2.0 0.00 0.00 0.00 1025.2
20260502004912 0 90 0.0 1.0 0.00 0.00 0.00 1025.3
20260502004109 0 90 0.0 1.0 0.00 0.00 0.00 1025.3
20260502003305 0 45 0.0 1.0 0.00 0.00 0.00 1025.3
20260502002504 0 90 0.0 1.0 0.00 0.00 0.00 1025.2
20260502001703 0 90 0.0 1.0 0.00 0.00 0.00 1025.2
20260502000856 0 90 0.0 0.0 0.00 0.00 0.00 1025.1
20260502000048 0 90 0.0 0.0 0.00 0.00 0.00 1025.0
20260501235245 0 90 0.0 0.0 0.00 0.00 0.00 1025.0
20260501234440 0 90 0.0 0.0 0.00 0.00 0.00 1025.0
20260501233634 0 90 0.0 1.0 0.00 0.00 0.00 1025.0
20260501232825 0 90 0.0 0.0 0.00 0.00 0.00 1025.0
20260501232022 0 90 0.0 0.0 0.00 0.00 0.00 1025.2
20260501231223 0 90 0.0 0.0 0.00 0.00 0.00 1025.2
20260501230420 0 90 0.0 0.0 0.00 0.00 0.00 1025.2
20260501225617 0 90 0.0 0.0 0.00 0.00 0.00 1025.2
20260501224814 0 90 0.0 0.0 0.00 0.00 0.00 1025.2
20260501224010 0 90 0.0 0.0 0.00 0.00 0.00 1025.2
20260501223206 0 90 0.0 0.0 0.00 0.00 0.00 1025.2
20260501222404 0 90 0.0 0.0 0.00 0.00 0.00 1025.1
20260501221600 0 90 0.0 0.0 0.00 0.00 0.00 1025.0
20260501220759 0 90 0.0 0.0 0.00 0.00 0.00 1025.2
20260501215955 0 90 0.0 0.0 0.00 0.00 0.00 1025.2
20260501215152 0 90 0.0 0.0 0.00 0.00 0.00 1025.1